Flag for Portugal Weather past 2 weeks in Porto, Portugal

Now
77 °F

Passing clouds.


Feels Like: 79 °F
Forecast: 63 / 85 °F
Wind: 14 mph from Northwest

Location: Porto / Pedras Rubras

Current Time: Jul 28, 2014 at 5:38:18 PM

Latest Report: Jul 28, 2014 at 5:00 PM


Visibility: N/A

Pressure: 29.98 "Hg

Humidity: 65%

Dew point: 64 °F

Location of PortoLocation

Historic Weather in Porto — Graph

°F

Porto temperature yesterday

Maximum temperature yesterday: 70 °F (at 1:00 PM)
Minimum temperature yesterday: 63 °F (at 1:30 AM)
Average temperature yesterday: 65 °F

Past Weeks' High & Low Weather Summary

 TemperatureHumidityPressure
High79 °F (Jul 28, 2:30 PM)100% (Jul 14, 1:30 AM)30.21 "Hg (Jul 14, 1:30 AM)
Low54 °F (Jul 21, 6:00 AM)50% (Jul 21, 5:30 PM)29.83 "Hg (Jul 19, 3:00 AM)
Average65 °F88%30.01 "Hg
* Reported Jul 13 4:00 PM — Jul 28 4:00 PM, Porto, Weather by CustomWeather, © 2014

Note: Actual official high and low records may vary slightly from our data, if they occured in-between our weather recording intervals... More about our weather records

Advertising

Porto weather history for previous 24 hours

 ConditionsComfort  
Time TempWeatherWind HumidityBarometerVisibility
4:00 PM
Jul 28
79 °FPassing clouds.8 mph61%29.98 "HgN/A
3:30 PM79 °FPassing clouds.8 mph61%30.01 "HgN/A
3:00 PM79 °FPassing clouds.8 mph65%30.01 "HgN/A
2:30 PM79 °FSunny.5 mph61%30.01 "Hg10 mi
2:00 PM72 °FPassing clouds.7 mph78%30.01 "HgN/A
1:30 PM72 °FPassing clouds.6 mph78%30.04 "HgN/A
1:00 PM70 °FPassing clouds.6 mph83%30.04 "HgN/A
12:30 PM68 °FFog.6 mph88%30.04 "Hg4 mi
12:04 PM68 °FFog.6 mph88%30.04 "Hg4 mi
11:30 AM68 °FFog.6 mph88%30.04 "Hg4 mi
11:00 AM68 °FFog.2 mph88%30.04 "Hg4 mi
10:30 AM64 °FFog.3 mph100%30.04 "Hg4 mi
10:00 AM63 °FFog.5 mph100%30.04 "Hg2 mi
9:30 AM63 °FSnow. Cloudy.5 mph100%30.04 "Hg1 mi
9:00 AM63 °FMild.3 mph100%30.01 "Hg1 mi
8:30 AM63 °FSnow. Cloudy.2 mph100%30.01 "Hg1 mi
8:00 AM63 °FFog.1 mph94%30.01 "Hg1 mi
7:30 AM63 °FFog.2 mph100%30.01 "Hg0 mi
7:00 AM63 °FFog.3 mph100%30.01 "Hg0 mi
6:30 AM63 °FFog.3 mph100%30.01 "Hg1 mi
6:00 AM63 °FFog.2 mph100%30.01 "Hg0 mi
5:30 AM63 °FFog.No wind100%30.01 "Hg0 mi
5:00 AM63 °FFog.2 mph100%30.01 "Hg1 mi
4:48 AM63 °FFog.2 mph100%30.01 "Hg1 mi
4:00 AM63 °FDense fog.1 mph100%30.01 "Hg0 mi
3:00 AM63 °FDense fog.2 mph100%30.01 "Hg1 mi
2:30 AM63 °FFog.2 mph100%30.01 "Hg0 mi
2:00 AM63 °FMostly cloudy.1 mph100%30.01 "Hg0 mi
1:30 AM63 °FDense fog.1 mph100%30.01 "Hg1 mi
1:00 AM63 °FDense fog.1 mph100%30.04 "Hg0 mi
12:00 AM63 °FFog.1 mph100%30.04 "Hg0 mi
11:30 PM
Jul 27
63 °FFog.1 mph100%30.04 "Hg0 mi
11:00 PM63 °FFog.3 mph100%30.04 "Hg0 mi
10:30 PM63 °FFog.3 mph100%30.04 "Hg1 mi
10:00 PM63 °FFog.1 mph100%30.04 "Hg1 mi
9:30 PM64 °FFog.1 mph94%30.04 "Hg1 mi
9:00 PM64 °FFog.2 mph94%30.01 "Hg1 mi
8:30 PM64 °FFog.3 mph94%30.01 "Hg0 mi
8:00 PM64 °FFog.3 mph94%30.01 "Hg0 mi
7:30 PM64 °FFog.5 mph100%30.01 "Hg0 mi
7:00 PM66 °FFog.5 mph94%30.01 "Hg1 mi
6:30 PM66 °FFog.3 mph94%30.01 "Hg3 mi
6:00 PM68 °FPartly sunny.3 mph88%30.01 "Hg4 mi
5:30 PM68 °FLow clouds.3 mph88%30.01 "Hg4 mi
5:00 PM68 °FLow clouds.5 mph88%30.01 "Hg4 mi
Weather by CustomWeather, © 2014

See weather overviewHow to use our weather pages